Time,TemperatureF,DewpointF,PressureIn,WindDirection,WindDirectionDegrees,WindSpeedMPH,WindSpeedGustMPH,Humidity,HourlyPrecipIn,Conditions,Clouds,dailyrainin,SoftwareType,DateUTC
2013-12-13 00:00:00,42.1,31.9,30.28,SSE,165,0.0,5.4,67,0.00,,---,0.00,VWS V14.00,2013-12-13 06:00:00,
2013-12-13 00:10:00,41.9,31.4,30.28,South,191,0.0,4.5,66,0.00,,---,0.00,VWS V14.00,2013-12-13 06:10:00,
2013-12-13 00:20:00,41.9,31.4,30.28,SSE,165,0.0,7.4,66,0.00,,---,0.00,VWS V14.00,2013-12-13 06:20:00,
2013-12-13 00:30:00,41.9,31.4,30.25,SSE,153,3.1,6.3,66,0.00,,---,0.00,VWS V14.00,2013-12-13 06:30:00,
2013-12-13 00:40:00,42.1,31.6,30.25,South,171,5.4,8.7,66,0.00,,---,0.00,VWS V14.00,2013-12-13 06:40:00,
2013-12-13 00:50:00,41.9,31.4,30.25,SSE,154,5.4,6.9,66,0.00,,---,0.00,VWS V14.00,2013-12-13 06:50:00,
2013-12-13 01:00:00,41.7,31.2,30.22,South,177,5.4,7.4,66,0.00,,---,0.00,VWS V14.00,2013-12-13 07:00:00,
2013-12-13 01:10:00,41.5,31.0,30.22,SSW,192,3.1,7.4,66,0.00,,---,0.00,VWS V14.00,2013-12-13 07:10:00,
2013-12-13 01:20:00,41.4,30.9,30.22,SSE,156,4.9,5.8,66,0.00,,---,0.00,VWS V14.00,2013-12-13 07:20:00,
2013-12-13 01:30:00,41.5,31.0,30.22,SE,125,0.0,7.8,66,0.00,,---,0.00,VWS V14.00,2013-12-13 07:30:00,
2013-12-13 01:40:00,41.5,31.0,30.22,SSW,199,3.6,5.8,66,0.00,,---,0.00,VWS V14.00,2013-12-13 07:40:00,
2013-12-13 01:50:00,41.9,31.4,30.22,SSE,153,0.0,6.7,66,0.00,,---,0.00,VWS V14.00,2013-12-13 07:50:00,
2013-12-13 02:00:00,41.9,31.0,30.22,SSW,208,2.7,5.8,65,0.00,,---,0.00,VWS V14.00,2013-12-13 08:00:00,
2013-12-13 02:10:00,41.9,31.0,30.22,SW,216,0.0,5.8,65,0.00,,---,0.00,VWS V14.00,2013-12-13 08:10:00,
2013-12-13 02:20:00,41.5,30.7,30.22,SSW,197,3.1,4.5,65,0.00,,---,0.00,VWS V14.00,2013-12-13 08:20:00,
2013-12-13 02:30:00,41.5,30.7,30.22,SSW,202,2.7,5.4,65,0.00,,---,0.00,VWS V14.00,2013-12-13 08:30:00,
2013-12-13 02:40:00,41.5,30.7,30.22,SE,132,4.0,7.8,65,0.00,,---,0.00,VWS V14.00,2013-12-13 08:40:00,
2013-12-13 02:50:00,41.5,30.7,30.22,SW,220,0.0,6.7,65,0.00,,---,0.00,VWS V14.00,2013-12-13 08:50:00,
2013-12-13 03:00:00,41.5,30.3,30.22,SSW,192,3.1,5.4,64,0.00,,---,0.00,VWS V14.00,2013-12-13 09:00:00,
2013-12-13 03:10:00,41.5,30.3,30.19,SSW,192,4.0,5.8,64,0.00,,---,0.00,VWS V14.00,2013-12-13 09:10:00,
2013-12-13 03:20:00,41.5,30.3,30.19,SSW,194,3.1,6.7,64,0.00,,---,0.00,VWS V14.00,2013-12-13 09:20:00,
2013-12-13 03:30:00,41.5,30.3,30.19,SSW,195,4.0,5.8,64,0.00,,---,0.00,VWS V14.00,2013-12-13 09:30:00,
2013-12-13 03:50:00,41.4,30.1,30.19,SE,131,0.0,5.4,64,0.00,,---,0.00,VWS V14.00,2013-12-13 09:50:00,
2013-12-13 04:00:00,41.4,30.1,30.19,South,191,4.0,4.5,64,0.00,,---,0.00,VWS V14.00,2013-12-13 10:00:00,
2013-12-13 04:10:00,41.5,30.7,30.19,SSW,205,4.0,6.9,65,0.00,,---,0.00,VWS V14.00,2013-12-13 10:10:00,
2013-12-13 04:20:00,41.5,30.7,30.19,SSW,206,3.6,6.7,65,0.00,,---,0.00,VWS V14.00,2013-12-13 10:20:00,
2013-12-13 04:30:00,41.5,30.7,30.16,SSW,197,4.5,6.3,65,0.00,,---,0.00,VWS V14.00,2013-12-13 10:30:00,
2013-12-13 04:40:00,41.9,31.0,30.16,SSW,209,3.1,6.9,65,0.00,,---,0.00,VWS V14.00,2013-12-13 10:40:00,
2013-12-13 04:50:00,42.1,30.8,30.16,SSW,197,2.7,6.7,64,0.00,,---,0.00,VWS V14.00,2013-12-13 10:50:00,
2013-12-13 05:00:00,42.3,31.0,30.16,South,180,4.5,5.4,64,0.00,,---,0.00,VWS V14.00,2013-12-13 11:00:00,
2013-12-13 05:10:00,42.3,31.0,30.16,SSW,192,3.6,6.3,64,0.00,,---,0.00,VWS V14.00,2013-12-13 11:10:00,
2013-12-13 05:20:00,42.3,31.0,30.16,SSE,156,3.6,5.4,64,0.00,,---,0.00,VWS V14.00,2013-12-13 11:20:00,
2013-12-13 05:30:00,42.3,31.0,30.13,SSW,213,3.6,6.9,64,0.00,,---,0.00,VWS V14.00,2013-12-13 11:30:00,
2013-12-13 05:40:00,42.3,31.0,30.16,SSW,193,3.1,7.8,64,0.00,,---,0.00,VWS V14.00,2013-12-13 11:40:00,
2013-12-13 05:50:00,42.4,31.1,30.16,South,190,3.6,7.8,64,0.00,,---,0.00,VWS V14.00,2013-12-13 11:50:00,
2013-12-13 06:00:00,42.4,31.5,30.13,South,173,4.5,8.3,65,0.00,,---,0.00,VWS V14.00,2013-12-13 12:00:00,
2013-12-13 06:10:00,42.6,31.7,30.13,SSE,165,5.4,7.4,65,0.00,,---,0.00,VWS V14.00,2013-12-13 12:10:00,
2013-12-13 06:20:00,43.0,32.0,30.13,South,174,4.0,10.1,65,0.00,,---,0.00,VWS V14.00,2013-12-13 12:20:00,
2013-12-13 06:30:00,43.0,31.6,30.10,SSW,202,5.4,8.7,64,0.00,,---,0.00,VWS V14.00,2013-12-13 12:30:00,
2013-12-13 06:40:00,43.2,31.8,30.13,SSW,200,4.9,7.8,64,0.00,,---,0.00,VWS V14.00,2013-12-13 12:40:00,
2013-12-13 06:50:00,43.3,32.0,30.13,South,191,6.9,7.8,64,0.00,,---,0.00,VWS V14.00,2013-12-13 12:50:00,
2013-12-13 07:00:00,43.5,32.2,30.10,South,173,4.9,10.1,64,0.00,,---,0.00,VWS V14.00,2013-12-13 13:00:00,
2013-12-13 07:10:00,43.5,31.8,30.10,South,175,5.4,9.6,63,0.00,,---,0.00,VWS V14.00,2013-12-13 13:10:00,
2013-12-13 07:20:00,43.7,32.0,30.10,SSE,147,5.4,8.7,63,0.00,,---,0.00,VWS V14.00,2013-12-13 13:20:00,
2013-12-13 07:30:00,43.7,32.0,30.10,SSE,157,8.3,8.3,63,0.00,,---,0.00,VWS V14.00,2013-12-13 13:30:00,
2013-12-13 07:40:00,43.7,32.0,30.10,South,186,7.4,8.3,63,0.00,,---,0.00,VWS V14.00,2013-12-13 13:40:00,
2013-12-13 07:50:00,43.9,32.1,30.10,SSW,208,2.7,8.3,63,0.00,,---,0.00,VWS V14.00,2013-12-13 13:50:00,
2013-12-13 08:00:00,44.1,32.3,30.10,SE,131,3.6,6.7,63,0.00,,---,0.00,VWS V14.00,2013-12-13 14:00:00,
2013-12-13 08:10:00,44.1,32.3,30.10,WSW,249,4.5,7.4,63,0.00,,---,0.00,VWS V14.00,2013-12-13 14:10:00,
2013-12-13 08:20:00,44.2,32.5,30.10,South,189,4.0,8.7,63,0.00,,---,0.00,VWS V14.00,2013-12-13 14:20:00,
2013-12-13 08:30:00,44.2,32.5,30.10,South,191,5.8,9.2,63,0.00,,---,0.00,VWS V14.00,2013-12-13 14:30:00,
2013-12-13 08:40:00,44.2,32.5,30.10,SSW,211,4.9,7.8,63,0.00,,---,0.00,VWS V14.00,2013-12-13 14:40:00,
2013-12-13 08:50:00,43.9,32.5,30.10,SE,144,4.9,9.2,64,0.00,,---,0.00,VWS V14.00,2013-12-13 14:50:00,
2013-12-13 09:00:00,43.5,32.9,30.10,South,182,5.4,9.2,66,0.00,,---,0.00,VWS V14.00,2013-12-13 15:00:00,
2013-12-13 09:10:00,43.2,33.0,30.07,SSW,201,4.5,6.7,67,0.00,,---,0.00,VWS V14.00,2013-12-13 15:10:00,
2013-12-13 09:20:00,43.0,33.2,30.07,SSE,158,3.6,7.4,68,0.00,,---,0.00,VWS V14.00,2013-12-13 15:20:00,
2013-12-13 09:30:00,43.0,33.5,30.07,SSW,205,4.5,6.3,69,0.00,,---,0.00,VWS V14.00,2013-12-13 15:30:00,
2013-12-13 09:40:00,43.2,34.0,30.07,SSW,199,3.1,8.7,70,0.00,,---,0.00,VWS V14.00,2013-12-13 15:40:00,
2013-12-13 09:50:00,43.3,34.6,30.07,SSW,192,5.4,7.4,71,0.00,,---,0.00,VWS V14.00,2013-12-13 15:50:00,
2013-12-13 10:00:00,43.7,34.9,30.07,SE,129,5.8,9.2,71,0.00,,---,0.00,VWS V14.00,2013-12-13 16:00:00,
2013-12-13 10:10:00,43.9,35.1,30.07,South,185,3.6,8.3,71,0.00,,---,0.00,VWS V14.00,2013-12-13 16:10:00,
2013-12-13 10:20:00,44.1,35.6,30.07,SE,129,4.5,9.6,72,0.00,,---,0.00,VWS V14.00,2013-12-13 16:20:00,
2013-12-13 10:30:00,44.1,35.6,30.07,SSW,204,7.4,10.5,72,0.00,,---,0.00,VWS V14.00,2013-12-13 16:30:00,
2013-12-13 10:40:00,44.2,35.8,30.07,SSW,195,5.4,9.6,72,0.00,,---,0.00,VWS V14.00,2013-12-13 16:40:00,
2013-12-13 10:50:00,44.2,35.8,30.07,South,171,3.1,7.4,72,0.00,,---,0.00,VWS V14.00,2013-12-13 16:50:00,
2013-12-13 11:00:00,44.6,36.2,30.07,SSW,195,6.3,7.4,72,0.00,,---,0.00,VWS V14.00,2013-12-13 17:00:00,
2013-12-13 11:10:00,44.8,36.3,30.04,South,171,3.6,8.3,72,0.00,,---,0.00,VWS V14.00,2013-12-13 17:10:00,
2013-12-13 11:20:00,45.0,36.8,30.04,SSW,192,4.5,9.2,73,0.00,,---,0.00,VWS V14.00,2013-12-13 17:20:00,
2013-12-13 11:30:00,45.1,37.0,30.04,SSW,205,5.8,6.9,73,0.00,,---,0.00,VWS V14.00,2013-12-13 17:30:00,
2013-12-13 11:41:00,45.3,36.8,30.01,SSW,198,0.0,6.9,72,0.00,,---,0.00,VWS V14.00,2013-12-13 17:41:00,
2013-12-13 11:50:00,45.5,37.0,30.01,SE,143,3.6,8.7,72,0.00,,---,0.00,VWS V14.00,2013-12-13 17:50:00,
2013-12-13 12:00:00,45.5,37.0,30.01,South,186,7.8,11.0,72,0.00,,---,0.00,VWS V14.00,2013-12-13 18:00:00,
2013-12-13 12:11:00,45.5,37.0,29.98,SE,136,3.1,7.8,72,0.00,,---,0.00,VWS V14.00,2013-12-13 18:11:00,
2013-12-13 12:21:00,45.7,37.2,29.98,South,191,5.8,9.2,72,0.00,,---,0.00,VWS V14.00,2013-12-13 18:21:00,
2013-12-13 12:31:00,45.7,37.2,29.98,South,170,5.8,7.8,72,0.00,,---,0.00,VWS V14.00,2013-12-13 18:31:00,
2013-12-13 12:41:00,45.7,37.2,29.95,South,170,4.0,8.7,72,0.00,,---,0.00,VWS V14.00,2013-12-13 18:41:00,
2013-12-13 12:51:00,45.9,37.4,29.95,SSW,203,0.0,6.3,72,0.00,,---,0.00,VWS V14.00,2013-12-13 18:51:00,
2013-12-13 13:01:00,45.9,37.4,29.95,SSW,193,4.9,7.8,72,0.00,,---,0.00,VWS V14.00,2013-12-13 19:01:00,
2013-12-13 13:10:00,46.0,37.5,29.92,SSW,203,7.4,8.3,72,0.00,,---,0.00,VWS V14.00,2013-12-13 19:10:00,
2013-12-13 13:21:00,45.9,37.4,29.92,SSW,198,4.9,10.1,72,0.00,,---,0.00,VWS V14.00,2013-12-13 19:21:00,
2013-12-13 13:30:00,45.9,37.4,29.92,SW,236,5.8,11.6,72,0.00,,---,0.00,VWS V14.00,2013-12-13 19:30:00,
2013-12-13 13:40:00,45.3,37.2,29.92,SSW,196,4.5,11.0,73,0.00,,---,0.00,VWS V14.00,2013-12-13 19:40:00,
2013-12-13 13:51:00,45.1,37.4,29.92,SW,228,4.5,11.6,74,0.00,,---,0.00,VWS V14.00,2013-12-13 19:51:00,
2013-12-13 14:01:00,45.1,37.4,29.92,SSW,204,4.0,8.7,74,0.00,,---,0.00,VWS V14.00,2013-12-13 20:01:00,
2013-12-13 14:10:00,44.8,37.3,29.92,South,173,3.6,8.3,75,0.00,,---,0.00,VWS V14.00,2013-12-13 20:10:00,
2013-12-13 14:21:00,44.6,37.5,29.92,SSW,200,6.7,9.2,76,0.00,,---,0.00,VWS V14.00,2013-12-13 20:21:00,
2013-12-13 14:30:00,44.8,38.0,29.89,SE,139,7.4,7.4,77,0.00,,---,0.00,VWS V14.00,2013-12-13 20:30:00,
2013-12-13 14:40:00,44.8,38.0,29.89,SSW,197,3.6,7.8,77,0.00,,---,0.00,VWS V14.00,2013-12-13 20:40:00,
2013-12-13 14:51:00,44.6,38.2,29.89,South,171,6.9,8.3,78,0.00,,---,0.00,VWS V14.00,2013-12-13 20:51:00,
2013-12-13 15:01:00,44.8,38.7,29.86,South,173,4.5,12.5,79,0.00,,---,0.00,VWS V14.00,2013-12-13 21:01:00,
2013-12-13 15:10:00,45.0,39.2,29.86,SW,215,2.7,11.0,80,0.00,,---,0.00,VWS V14.00,2013-12-13 21:10:00,
2013-12-13 15:20:00,45.1,39.7,29.86,SW,216,7.4,10.5,81,0.00,,---,0.00,VWS V14.00,2013-12-13 21:20:00,
2013-12-13 15:31:00,45.0,39.8,29.86,SSW,199,8.3,9.2,82,0.00,,---,0.00,VWS V14.00,2013-12-13 21:31:00,
2013-12-13 15:40:00,45.1,40.0,29.86,South,176,4.0,8.3,82,0.00,,---,0.00,VWS V14.00,2013-12-13 21:40:00,
2013-12-13 15:51:00,45.0,39.8,29.86,SSW,197,6.3,8.7,82,0.00,,---,0.00,VWS V14.00,2013-12-13 21:51:00,
2013-12-13 16:01:00,45.1,40.3,29.86,SW,216,3.1,8.3,83,0.00,,---,0.00,VWS V14.00,2013-12-13 22:01:00,
2013-12-13 16:11:00,45.1,40.3,29.86,WSW,242,4.0,11.0,83,0.00,,---,0.00,VWS V14.00,2013-12-13 22:11:00,
2013-12-13 16:21:00,45.3,40.8,29.86,South,181,3.6,8.7,84,0.00,,---,0.00,VWS V14.00,2013-12-13 22:21:00,
2013-12-13 16:31:00,45.5,41.0,29.83,SSW,209,7.4,7.8,84,0.00,,---,0.00,VWS V14.00,2013-12-13 22:31:00,
2013-12-13 16:41:00,45.5,41.0,29.83,SSW,204,4.0,8.7,84,0.00,,---,0.00,VWS V14.00,2013-12-13 22:41:00,
2013-12-13 16:51:00,45.5,41.3,29.83,SW,225,3.6,7.4,85,0.00,,---,0.00,VWS V14.00,2013-12-13 22:51:00,
2013-12-13 17:01:00,45.5,41.3,29.83,SSW,203,3.6,7.4,85,0.00,,---,0.00,VWS V14.00,2013-12-13 23:01:00,
2013-12-13 17:10:00,45.5,41.3,29.83,SSE,160,6.3,9.2,85,0.00,,---,0.00,VWS V14.00,2013-12-13 23:10:00,
2013-12-13 17:22:00,45.5,41.3,29.83,SSW,200,4.5,8.7,85,0.00,,---,0.00,VWS V14.00,2013-12-13 23:22:00,
2013-12-13 17:32:00,45.5,41.6,29.83,South,187,4.9,8.3,86,0.00,,---,0.00,VWS V14.00,2013-12-13 23:32:00,
2013-12-13 17:42:00,45.3,41.4,29.80,SSW,197,3.1,7.4,86,0.00,,---,0.00,VWS V14.00,2013-12-13 23:42:00,
2013-12-13 17:50:00,45.0,41.0,29.80,South,183,4.5,9.2,86,0.00,,---,0.00,VWS V14.00,2013-12-13 23:50:00,
2013-12-13 18:00:00,45.0,41.0,29.80,South,191,5.8,11.0,86,0.00,,---,0.00,VWS V14.00,2013-12-14 00:00:00,
2013-12-13 18:12:00,45.0,41.3,29.80,South,191,3.1,9.2,87,0.00,,---,0.00,VWS V14.00,2013-12-14 00:12:00,
2013-12-13 18:20:00,45.1,41.5,29.80,SE,145,5.8,10.1,87,0.00,,---,0.00,VWS V14.00,2013-12-14 00:20:00,
2013-12-13 18:30:00,45.1,41.5,29.80,SSE,164,3.6,7.8,87,0.00,,---,0.00,VWS V14.00,2013-12-14 00:30:00,
2013-12-13 18:40:00,45.1,41.5,29.80,SSE,159,4.0,8.3,87,0.00,,---,0.00,VWS V14.00,2013-12-14 00:40:00,
2013-12-13 18:50:00,45.3,42.0,29.80,SSW,197,3.1,7.4,88,0.00,,---,0.00,VWS V14.00,2013-12-14 00:50:00,
2013-12-13 19:00:00,45.5,42.2,29.80,SSW,194,0.0,7.4,88,0.00,,---,0.00,VWS V14.00,2013-12-14 01:00:00,
2013-12-13 19:12:00,45.5,42.2,29.83,South,184,0.0,8.7,88,0.00,,---,0.00,VWS V14.00,2013-12-14 01:12:00,
2013-12-13 19:21:00,45.5,42.2,29.83,SSW,208,5.4,8.3,88,0.00,,---,0.00,VWS V14.00,2013-12-14 01:21:00,
2013-12-13 19:31:00,45.3,42.3,29.83,South,175,0.0,6.9,89,0.00,,---,0.00,VWS V14.00,2013-12-14 01:31:00,
2013-12-13 19:42:00,45.3,42.3,29.83,SSW,195,3.1,8.3,89,0.00,,---,0.00,VWS V14.00,2013-12-14 01:42:00,
2013-12-13 19:52:00,45.3,42.3,29.83,SSE,147,5.8,7.4,89,0.00,,---,0.00,VWS V14.00,2013-12-14 01:52:00,
2013-12-13 20:00:00,45.1,42.1,29.80,SE,139,4.5,8.7,89,0.00,,---,0.00,VWS V14.00,2013-12-14 02:00:00,
2013-12-13 20:10:00,45.0,42.2,29.83,South,176,4.5,6.7,90,0.00,,---,0.00,VWS V14.00,2013-12-14 02:10:00,
2013-12-13 20:20:00,45.0,42.2,29.83,SSE,166,5.4,6.9,90,0.00,,---,0.00,VWS V14.00,2013-12-14 02:20:00,
2013-12-13 20:30:00,45.3,42.8,29.83,South,189,4.9,8.7,91,0.00,,---,0.00,VWS V14.00,2013-12-14 02:30:00,
2013-12-13 20:42:00,45.5,42.7,29.80,SW,220,6.9,10.1,90,0.00,,---,0.00,VWS V14.00,2013-12-14 02:42:00,
2013-12-13 20:52:00,45.7,43.2,29.80,South,171,2.7,6.9,91,0.00,,---,0.00,VWS V14.00,2013-12-14 02:52:00,
2013-12-13 21:02:00,45.9,43.4,29.80,SSE,160,4.5,7.4,91,0.00,,---,0.00,VWS V14.00,2013-12-14 03:02:00,
2013-12-13 21:12:00,46.0,43.6,29.80,SSW,197,5.8,8.7,91,0.00,,---,0.00,VWS V14.00,2013-12-14 03:12:00,
2013-12-13 21:22:00,46.0,43.6,29.80,SSW,206,6.3,7.8,91,0.00,,---,0.00,VWS V14.00,2013-12-14 03:22:00,
2013-12-13 21:30:00,46.2,44.0,29.80,South,169,4.0,7.8,92,0.00,,---,0.00,VWS V14.00,2013-12-14 03:30:00,
2013-12-13 21:42:00,46.2,44.0,29.78,SSW,207,4.5,7.8,92,0.00,,---,0.00,VWS V14.00,2013-12-14 03:42:00,
2013-12-13 21:52:00,46.4,44.2,29.78,SSW,202,0.0,7.4,92,0.00,,---,0.00,VWS V14.00,2013-12-14 03:52:00,
2013-12-13 22:00:00,46.4,44.2,29.78,South,180,3.6,10.1,92,0.00,,---,0.00,VWS V14.00,2013-12-14 04:00:00,
2013-12-13 22:12:00,46.6,44.4,29.78,SSW,195,3.1,8.7,92,0.00,,---,0.00,VWS V14.00,2013-12-14 04:12:00,
2013-12-13 22:22:00,46.6,44.7,29.78,South,176,4.5,6.9,93,0.00,,---,0.00,VWS V14.00,2013-12-14 04:22:00,
2013-12-13 22:30:00,46.4,44.5,29.78,SSW,201,4.5,7.8,93,0.00,,---,0.00,VWS V14.00,2013-12-14 04:30:00,
2013-12-13 22:42:00,46.4,44.5,29.78,SSE,161,2.7,7.4,93,0.00,,---,0.00,VWS V14.00,2013-12-14 04:42:00,
2013-12-13 22:52:00,46.2,44.3,29.78,South,181,0.0,6.3,93,0.00,,---,0.00,VWS V14.00,2013-12-14 04:52:00,
2013-12-13 23:02:00,46.2,44.3,29.78,SSW,196,3.6,6.7,93,0.00,,---,0.00,VWS V14.00,2013-12-14 05:02:00,
2013-12-13 23:12:00,46.0,44.1,29.78,South,177,3.1,5.4,93,0.00,,---,0.00,VWS V14.00,2013-12-14 05:12:00,
2013-12-13 23:22:00,46.0,44.1,29.78,SSW,195,3.1,6.3,93,0.00,,---,0.00,VWS V14.00,2013-12-14 05:22:00,
2013-12-13 23:32:00,45.9,44.0,29.78,South,188,3.1,4.9,93,0.00,,---,0.00,VWS V14.00,2013-12-14 05:32:00,
2013-12-13 23:42:00,45.9,44.2,29.78,SSW,198,2.7,4.9,94,0.00,,---,0.00,VWS V14.00,2013-12-14 05:42:00,
2013-12-13 23:50:00,45.7,44.1,29.78,SSW,210,0.0,5.8,94,0.00,,---,0.00,VWS V14.00,2013-12-14 05:50:00,